FW8688 Weather Reports


Display with metric or nautical units.
time (UTC)temp
F
wind
direction
speed
MPH
gust
MPH
rain 1hr
in
rain 24hr
in
rain mn
in
humidity
%
barometer
mb
20260508191304 73 13 7.0 13.0 0.00 0.00 0.00 25 1013.1
20260508190805 73 19 7.0 13.0 0.00 0.00 0.00 26 1013.2
20260508190304 73 358 9.0 13.0 0.00 0.00 0.00 25 1013.5
20260508185805 73 351 8.0 14.0 0.00 0.00 0.00 25 1013.5
20260508185306 73 351 10.0 13.0 0.00 0.00 0.00 26 1013.5
20260508184804 73 21 9.0 14.0 0.00 0.00 0.00 26 1013.5
20260508184305 73 38 5.0 12.0 0.00 0.00 0.00 27 1013.5
20260508183804 72 3 7.0 12.0 0.00 0.00 0.00 28 1013.7
20260508182804 71 28 6.0 12.0 0.00 0.00 0.00 29 1013.7
20260508182306 71 341 6.0 10.0 0.00 0.00 0.00 30 1013.7
20260508181804 71 0 6.0 13.0 0.00 0.00 0.00 30 1013.9
20260508181304 71 26 6.0 10.0 0.00 0.00 0.00 30 1013.9
20260508180804 71 28 7.0 12.0 0.00 0.00 0.00 29 1013.9
20260508180304 71 11 7.0 12.0 0.00 0.00 0.00 29 1013.9
20260508175804 71 30 7.0 12.0 0.00 0.00 0.00 29 1014.0
20260508175306 72 45 6.0 9.0 0.00 0.00 0.00 28 1013.8
20260508174804 72 357 4.0 9.0 0.00 0.00 0.00 28 1013.8
20260508173304 72 194 1.0 7.0 0.00 0.00 0.00 30 1014.0
20260508172307 71 55 5.0 14.0 0.00 0.00 0.00 34 1014.0
20260508171805 71 130 4.0 6.0 0.00 0.00 0.00 37 1014.0
20260508171304 70 255 2.0 5.0 0.00 0.00 0.00 35 1014.0
20260508170804 70 177 1.0 3.0 0.00 0.00 0.00 37 1014.1
20260508165804 68 209 3.0 5.0 0.00 0.00 0.00 38 1014.0
20260508165306 68 201 3.0 7.0 0.00 0.00 0.00 40 1014.0
20260508164804 68 160 2.0 5.0 0.00 0.00 0.00 39 1014.1
20260508163804 67 176 2.0 5.0 0.00 0.00 0.00 41 1014.1
20260508163305 67 135 3.0 5.0 0.00 0.00 0.00 42 1014.1
20260508162306 66 175 3.0 5.0 0.00 0.00 0.00 43 1014.1
20260508161804 65 170 3.0 6.0 0.00 0.00 0.00 44 1014.1
20260508161304 65 216 4.0 6.0 0.00 0.00 0.00 44 1014.1
20260508160804 65 187 3.0 6.0 0.00 0.00 0.00 44 1014.1
20260508155804 65 160 3.0 5.0 0.00 0.00 0.00 44 1014.1
20260508155306 64 159 3.0 5.0 0.00 0.00 0.00 45 1013.9
20260508154804 64 169 2.0 3.0 0.00 0.00 0.00 47 1013.9
20260508154304 63 162 0.0 3.0 0.00 0.00 0.00 48 1013.9
20260508153804 63 166 3.0 3.0 0.00 0.00 0.00 48 1013.9
20260508153304 63 183 2.0 3.0 0.00 0.00 0.00 49 1013.9
20260508152306 62 176 3.0 3.0 0.00 0.00 0.00 51 1013.9
20260508151804 62 169 2.0 3.0 0.00 0.00 0.00 51 1013.8
20260508151305 62 165 2.0 5.0 0.00 0.00 0.00 51 1013.8
20260508150804 62 172 1.0 3.0 0.00 0.00 0.00 53 1013.8
20260508145804 61 180 2.0 3.0 0.00 0.00 0.00 53 1013.8
20260508145306 61 180 1.0 3.0 0.00 0.00 0.00 54 1013.7
20260508144804 61 155 1.0 2.0 0.00 0.00 0.00 55 1013.8
20260508144304 60 164 1.0 2.0 0.00 0.00 0.00 57 1013.9
20260508143804 59 135 0.0 0.0 0.00 0.00 0.00 59 1013.9
20260508142306 57 59 0.0 0.0 0.00 0.00 0.00 61 1013.8
20260508141804 56 59 0.0 0.0 0.00 0.00 0.00 62 1013.8
20260508141304 56 59 0.0 0.0 0.00 0.00 0.00 64 1013.8
20260508140804 55 59 0.0 0.0 0.00 0.00 0.00 66 1013.8
20260508140304 54 59 0.0 0.0 0.00 0.00 0.00 67 1013.8
20260508135804 54 59 0.0 0.0 0.00 0.00 0.00 67 1013.6
20260508135306 53 59 0.0 0.0 0.00 0.00 0.00 67 1013.6
20260508134304 52 59 1.0 2.0 0.00 0.00 0.00 69 1013.5
20260508133804 51 59 0.0 0.0 0.00 0.00 0.00 69 1013.5
20260508132306 49 59 0.0 0.0 0.00 0.00 0.00 69 1013.3
20260508131804 49 59 0.0 0.0 0.00 0.00 0.00 69 1013.2
20260508131304 49 59 0.0 0.0 0.00 0.00 0.00 69 1013.1
20260508130804 49 59 0.0 0.0 0.00 0.00 0.00 69 1013.1
20260508130304 49 59 0.0 0.0 0.00 0.00 0.00 68 1013.1
20260508125805 49 59 0.0 0.0 0.00 0.00 0.00 68 1013.0
20260508125306 49 59 0.0 0.0 0.00 0.00 0.00 68 1013.0
20260508124804 49 59 0.0 0.0 0.00 0.00 0.00 67 1012.8
20260508124304 49 59 0.0 0.0 0.00 0.00 0.00 67 1012.8
20260508123804 49 59 0.0 0.0 0.00 0.00 0.00 66 1012.8
20260508123304 49 59 0.0 0.0 0.00 0.00 0.00 66 1012.5
20260508122804 49 59 1.0 2.0 0.00 0.00 0.00 66 1012.5
20260508122307 49 40 0.0 0.0 0.00 0.00 0.00 66 1012.5
20260508121804 49 40 0.0 0.0 0.00 0.00 0.00 65 1012.5
20260508121304 50 40 0.0 0.0 0.00 0.00 0.00 65 1012.4
20260508120804 50 40 0.0 0.0 0.00 0.00 0.00 64 1012.4
20260508120304 50 40 0.0 0.0 0.00 0.00 0.00 65 1012.4
20260508115804 50 40 0.0 0.0 0.00 0.00 0.00 65 1012.3
20260508115306 50 40 0.0 1.0 0.00 0.00 0.00 64 1012.3
20260508114804 50 40 1.0 3.0 0.00 0.00 0.00 65 1012.3
20260508114304 50 52 1.0 2.0 0.00 0.00 0.00 64 1012.3
20260508113304 50 132 0.0 0.0 0.00 0.00 0.00 64 1012.0
20260508112804 51 132 0.0 0.0 0.00 0.00 0.00 63 1012.0
20260508111804 51 132 0.0 2.0 0.00 0.00 0.00 63 1012.0
20260508111304 51 132 0.0 0.0 0.00 0.00 0.00 63 1012.0
20260508110804 51 132 0.0 0.0 0.00 0.00 0.00 63 1012.0
20260508110304 51 132 0.0 2.0 0.00 0.00 0.00 63 1011.9
20260508105804 51 133 2.0 3.0 0.00 0.00 0.00 63 1011.9
20260508104804 51 167 0.0 3.0 0.00 0.00 0.00 62 1011.8
20260508104304 52 325 0.0 1.0 0.00 0.00 0.00 62 1011.8
20260508103804 51 325 2.0 3.0 0.00 0.00 0.00 62 1011.8
20260508102306 52 207 0.0 2.0 0.00 0.00 0.00 60 1011.7
20260508101804 52 214 3.0 3.0 0.00 0.00 0.00 59 1011.7
20260508101304 53 336 0.0 2.0 0.00 0.00 0.00 57 1011.7
20260508100304 54 26 1.0 3.0 0.00 0.00 0.00 56 1011.6
20260508095804 54 174 1.0 3.0 0.00 0.00 0.00 56 1011.7
20260508095306 54 106 0.0 3.0 0.00 0.00 0.00 55 1011.7
20260508094304 55 105 1.0 3.0 0.00 0.00 0.00 54 1011.7
20260508093804 55 14 2.0 5.0 0.00 0.00 0.00 53 1011.6
20260508093304 54 12 3.0 5.0 0.00 0.00 0.00 55 1011.6
20260508092804 53 352 3.0 5.0 0.00 0.00 0.00 57 1011.3
20260508092312 53 354 3.0 5.0 0.00 0.00 0.00 58 1011.4
20260508091803 53 323 2.0 3.0 0.00 0.00 0.00 57 1011.6
20260508091304 54 37 0.0 0.0 0.00 0.00 0.00 56 1011.6
20260508090804 54 55 0.0 0.0 0.00 0.00 0.00 56 1011.6
20260508090304 54 55 0.0 1.0 0.00 0.00 0.00 55 1011.6
20260508084804 55 49 1.0 2.0 0.00 0.00 0.00 53 1011.3
20260508084303 54 49 2.0 3.0 0.00 0.00 0.00 55 1011.3
20260508083804 54 49 2.0 3.0 0.00 0.00 0.00 56 1011.4
20260508082804 54 63 1.0 2.0 0.00 0.00 0.00 56 1011.3
20260508082306 55 49 1.0 2.0 0.00 0.00 0.00 55 1011.3
20260508081804 55 296 0.0 0.0 0.00 0.00 0.00 55 1011.3
20260508081304 55 296 0.0 0.0 0.00 0.00 0.00 55 1011.4
20260508080804 55 296 0.0 0.0 0.00 0.00 0.00 54 1011.4
20260508080304 55 296 0.0 0.0 0.00 0.00 0.00 54 1011.4
20260508075308 55 296 1.0 2.0 0.00 0.00 0.00 55 1011.4
20260508074804 55 278 1.0 2.0 0.00 0.00 0.00 54 1011.4
20260508074304 56 236 2.0 3.0 0.00 0.00 0.00 53 1011.4
20260508073804 56 77 1.0 2.0 0.00 0.00 0.00 52 1011.4
20260508073304 57 78 3.0 5.0 0.00 0.00 0.00 51 1011.4
20260508072804 56 30 2.0 3.0 0.00 0.00 0.00 51 1011.4
20260508072307 56 30 1.0 2.0 0.00 0.00 0.00 51 1011.4
20260508071804 57 30 0.0 0.0 0.00 0.00 0.00 52 1011.4
20260508071304 57 30 0.0 2.0 0.00 0.00 0.00 52 1011.4
20260508070304 57 26 2.0 3.0 0.00 0.00 0.00 52 1011.4
20260508065306 57 19 0.0 3.0 0.00 0.00 0.00 52 1011.4
20260508064303 57 6 2.0 3.0 0.00 0.00 0.00 52 1011.4
20260508063804 57 5 0.0 2.0 0.00 0.00 0.00 52 1011.3
20260508063304 57 5 0.0 3.0 0.00 0.00 0.00 52 1011.2
20260508062804 57 21 1.0 3.0 0.00 0.00 0.00 51 1011.2
20260508061804 58 80 0.0 0.0 0.00 0.00 0.00 50 1011.1
20260508061304 58 80 0.0 0.0 0.00 0.00 0.00 50 1011.1
20260508060804 58 80 0.0 0.0 0.00 0.00 0.00 50 1011.1
20260508055804 58 80 0.0 0.0 0.00 0.00 0.00 50 1011.1
20260508055306 59 80 0.0 0.0 0.00 0.00 0.00 49 1010.7
20260508054304 59 80 0.0 0.0 0.00 0.00 0.00 47 1010.7
20260508053804 60 80 0.0 0.0 0.00 0.00 0.00 46 1010.7
20260508053304 60 80 0.0 0.0 0.00 0.00 0.00 46 1010.6
20260508052804 60 80 0.0 0.0 0.00 0.00 0.00 44 1010.6
20260508052306 60 80 0.0 0.0 0.00 0.00 0.00 44 1010.6
20260508051804 60 80 0.0 0.0 0.00 0.00 0.00 43 1010.9
20260508051304 60 80 0.0 2.0 0.00 0.00 0.00 43 1010.9
20260508050803 61 80 1.0 2.0 0.00 0.00 0.00 43 1010.9
20260508050303 61 98 1.0 2.0 0.00 0.00 0.00 43 1010.9
20260508045804 61 98 0.0 2.0 0.00 0.00 0.00 43 1010.6
20260508045306 61 95 2.0 3.0 0.00 0.00 0.00 43 1010.6
20260508044805 62 99 2.0 3.0 0.00 0.00 0.00 43 1010.6
20260508044306 62 95 2.0 3.0 0.00 0.00 0.00 43 1010.8
20260508043806 62 63 2.0 3.0 0.00 0.00 0.00 44 1010.8
20260508043305 63 63 0.0 2.0 0.00 0.00 0.00 45 1010.7
20260508042307 64 345 0.0 0.0 0.00 0.00 0.00 42 1010.8
20260508041806 64 345 0.0 1.0 0.00 0.00 0.00 41 1010.8
20260508041306 65 345 1.0 1.0 0.00 0.00 0.00 41 1010.8
20260508040805 65 345 0.0 0.0 0.00 0.00 0.00 39 1010.8
20260508035805 65 345 0.0 1.0 0.00 0.00 0.00 40 1010.6
20260508035306 66 345 0.0 1.0 0.00 0.00 0.00 38 1010.6
20260508034805 66 345 1.0 2.0 0.00 0.00 0.00 37 1010.5
20260508034305 66 345 0.0 1.0 0.00 0.00 0.00 37 1010.5
20260508033805 67 345 1.0 2.0 0.00 0.00 0.00 36 1010.3
20260508033305 67 345 1.0 2.0 0.00 0.00 0.00 36 1010.4
20260508032805 67 345 0.0 1.0 0.00 0.00 0.00 36 1010.4
20260508032306 67 345 1.0 2.0 0.00 0.00 0.00 36 1010.4
20260508031806 68 345 1.0 1.0 0.00 0.00 0.00 36 1010.4
20260508031305 69 345 0.0 0.0 0.00 0.00 0.00 35 1010.2
20260508030805 69 345 0.0 2.0 0.00 0.00 0.00 34 1010.2
20260508030305 70 345 1.0 2.0 0.00 0.00 0.00 34 1010.2
20260508025806 70 345 0.0 1.0 0.00 0.00 0.00 33 1010.1
20260508024805 71 192 0.0 0.0 0.00 0.00 0.00 33 1010.2
20260508024306 71 192 0.0 0.0 0.00 0.00 0.00 31 1010.0
20260508022805 71 192 1.0 2.0 0.00 0.00 0.00 30 1010.0
20260508021805 72 231 1.0 3.0 0.00 0.00 0.00 28 1010.0
20260508021305 74 188 2.0 3.0 0.00 0.00 0.00 28 1010.0
20260508020805 74 155 0.0 0.0 0.00 0.00 0.00 27 1010.0
20260508020305 75 155 1.0 2.0 0.00 0.00 0.00 27 1010.0
20260508015805 75 155 1.0 3.0 0.00 0.00 0.00 27 1010.1
20260508015306 75 323 0.0 0.0 0.00 0.00 0.00 26 1009.8
20260508014805 76 323 0.0 1.0 0.00 0.00 0.00 23 1009.7
20260508013805 75 323 1.0 3.0 0.00 0.00 0.00 23 1009.7
20260508013305 75 302 2.0 3.0 0.00 0.00 0.00 23 1009.7
20260508011306 75 313 0.0 2.0 0.00 0.00 0.00 24 1010.0
20260508010805 75 313 2.0 3.0 0.00 0.00 0.00 24 1010.0
20260508010305 75 291 2.0 3.0 0.00 0.00 0.00 24 1010.0
20260508005805 75 260 1.0 2.0 0.00 0.00 0.00 24 1010.0
20260508004305 75 256 2.0 3.0 0.00 0.00 0.00 23 1010.0
20260508003806 75 278 1.0 2.0 0.00 0.00 0.00 23 1010.3
20260508003305 75 355 1.0 3.0 0.00 0.00 0.00 22 1010.3
20260508002307 75 358 5.0 7.0 0.00 0.00 0.00 23 1010.3
20260508001805 76 334 3.0 5.0 0.00 0.00 0.00 23 1010.6
20260508001305 76 355 2.0 3.0 0.00 0.00 0.00 23 1010.6
20260508000805 75 67 2.0 3.0 0.00 0.00 0.00 23 1010.6
20260508000305 76 10 5.0 9.0 0.00 0.00 0.00 22 1010.6
20260507235307 76 81 4.0 7.0 0.00 0.00 0.00 22 1010.5
20260507234806 76 10 3.0 7.0 0.00 0.00 0.00 22 1010.5
20260507233805 76 15 5.0 12.0 0.00 0.00 0.00 23 1010.6
20260507232307 76 6 5.0 12.0 0.00 0.00 0.00 22 1010.8
20260507231805 76 356 3.0 9.0 0.00 0.00 0.00 23 1010.8
20260507231305 76 34 7.0 12.0 0.00 0.00 0.00 22 1010.9
20260507230805 76 353 7.0 12.0 0.00 0.00 0.00 22 1010.8
20260507230305 76 329 7.0 12.0 0.00 0.00 0.00 22 1010.9
20260507225805 76 57 1.0 7.0 0.00 0.00 0.00 22 1010.9
20260507225306 77 20 7.0 9.0 0.00 0.00 0.00 21 1011.1
20260507224805 77 347 3.0 5.0 0.00 0.00 0.00 21 1011.1
20260507223805 77 300 3.0 7.0 0.00 0.00 0.00 22 1011.3
20260507223305 76 304 3.0 10.0 0.00 0.00 0.00 22 1011.4
20260507222306 76 280 4.0 7.0 0.00 0.00 0.00 22 1011.4
20260507221805 76 169 5.0 9.0 0.00 0.00 0.00 21 1011.5
20260507221305 78 178 3.0 6.0 0.00 0.00 0.00 21 1011.8
20260507220306 77 272 5.0 10.0 0.00 0.00 0.00 21 1011.9
20260507215805 77 313 7.0 12.0 0.00 0.00 0.00 21 1011.9
20260507215307 78 261 5.0 8.0 0.00 0.00 0.00 20 1011.7
20260507214805 77 341 1.0 6.0 0.00 0.00 0.00 20 1011.7
20260507214305 77 329 3.0 6.0 0.00 0.00 0.00 21 1011.8
20260507213805 76 46 2.0 5.0 0.00 0.00 0.00 22 1011.9
20260507213305 76 21 3.0 5.0 0.00 0.00 0.00 22 1012.2
20260507212805 76 112 2.0 6.0 0.00 0.00 0.00 21 1012.2
20260507212307 75 145 3.0 5.0 0.00 0.00 0.00 23 1012.2
20260507211305 74 180 7.0 10.0 0.00 0.00 0.00 23 1012.5
20260507210805 75 196 5.0 9.0 0.00 0.00 0.00 22 1012.6
20260507210305 75 170 4.0 6.0 0.00 0.00 0.00 22 1012.6
20260507205805 75 144 5.0 8.0 0.00 0.00 0.00 22 1012.7
20260507204805 74 156 4.0 10.0 0.00 0.00 0.00 23 1012.9
20260507204305 74 167 6.0 9.0 0.00 0.00 0.00 22 1012.9
20260507203805 75 134 4.0 9.0 0.00 0.00 0.00 23 1013.0
20260507202805 74 160 6.0 10.0 0.00 0.00 0.00 24 1013.2
20260507202307 73 158 6.0 9.0 0.00 0.00 0.00 23 1013.3
20260507201805 73 110 6.0 8.0 0.00 0.00 0.00 23 1013.4
20260507201305 73 169 6.0 10.0 0.00 0.00 0.00 23 1013.6
20260507200805 73 125 6.0 10.0 0.00 0.00 0.00 24 1013.6
20260507200305 73 168 5.0 10.0 0.00 0.00 0.00 24 1013.4
20260507195804 71 183 3.0 7.0 0.00 0.00 0.00 24 1013.4
20260507195306 71 132 6.0 10.0 0.00 0.00 0.00 23 1013.4
20260507194805 71 142 5.0 8.0 0.00 0.00 0.00 23 1013.6
20260507194305 71 138 5.0 9.0 0.00 0.00 0.00 23 1013.7
20260507193805 71 122 5.0 8.0 0.00 0.00 0.00 23 1013.8
20260507193305 71 158 6.0 10.0 0.00 0.00 0.00 23 1013.9
20260507192805 70 140 5.0 9.0 0.00 0.00 0.00 24 1013.9
20260507192306 70 125 5.0 9.0 0.00 0.00 0.00 25 1014.1